This is the latest recevied weather packets stored in our database for station/object K0SNA. If no packets are shown the sender has not sent any weather packets the latest 1 day(s).
| Time | Temp. | Humidity | Pressure | Rain* | Wind** | Luminosity | Snow |
|---|---|---|---|---|---|---|---|
| 1778057923 | 0.56° C | 68% | 1015.3 hPa | 0 mm | - | 0 W/m² | - |
| 1778057619 | 0.56° C | 67% | 1015.4 hPa | 0 mm | - | 0 W/m² | - |
| 1778056709 | 0.56° C | 67% | 1014.8 hPa | 0 mm | - | 0 W/m² | - |
| 1778056104 | 0.56° C | 69% | 1014.8 hPa | 0 mm | - | 0 W/m² | - |
| 1778055800 | 0.56° C | 67% | 1014.9 hPa | 0 mm | - | 0 W/m² | - |
| 1778054892 | 0.56° C | 67% | 1015.1 hPa | 0 mm | - | 0 W/m² | - |
| 1778053680 | 1.11° C | 65% | 1014.8 hPa | 0 mm | - | 0 W/m² | - |
| 1778053377 | 1.67° C | 64% | 1014.9 hPa | 0 mm | - | 0 W/m² | - |
| 1778053075 | 1.67° C | 63% | 1014.7 hPa | 0 mm | - | 0 W/m² | - |
| 1778052469 | 2.22° C | 61% | 1014.5 hPa | 0 mm | - | 0 W/m² | - |
| 1778051562 | 2.22° C | 60% | 1014.6 hPa | 0 mm | - | 0 W/m² | - |
| 1778050350 | 2.78° C | 59% | 1014.7 hPa | 0 mm | - | 0 W/m² | - |
| 1778049441 | 2.78° C | 58% | 1014.6 hPa | 0 mm | - | 0 W/m² | - |
| 1778046715 | 3.33° C | 56% | 1014.6 hPa | 0 mm | - | 0 W/m² | - |
| 1778046108 | 3.89° C | 55% | 1014.6 hPa | 0 mm | - | 0 W/m² | - |
| 1778045806 | 3.89° C | 55% | 1014.7 hPa | 0 mm | - | 0 W/m² | - |
| 1778043992 | 3.89° C | 55% | 1014.1 hPa | 0 mm | - | 0 W/m² | - |
| 1778043385 | 4.44° C | 55% | 1013.9 hPa | 0 mm | - | 0 W/m² | - |
| 1778041571 | 4.44° C | 54% | 1014 hPa | 0 mm | - | 0 W/m² | - |
| 1778041268 | 5° C | 54% | 1014 hPa | 0 mm | - | 0 W/m² | - |
| 1778040663 | 5° C | 53% | 1013.9 hPa | 0 mm | - | 0 W/m² | - |
| 1778040361 | 5° C | 53% | 1013.8 hPa | 0 mm | - | 0 W/m² | - |
| 1778039754 | 5° C | 53% | 1013.9 hPa | 0 mm | - | 0 W/m² | - |
| 1778039450 | 5° C | 53% | 1013.8 hPa | 0 mm | - | 0 W/m² | - |
| 1778039148 | 5.56° C | 52% | 1013.9 hPa | 0 mm | - | 0 W/m² | - |
* Rain latest hour (hover to see other rain measurements)
** Current wind speed in m/s (hover to see current wind gust speed)